Location: Amsterdam
(30.7274°N, 84.4357°W)
Time: 06:22:40
(UTC+00:00)

BlueWalker 3 - Pass Details

Date: 18 January 2026
Orbit: 450 x 461 km, 53.2° (Epoch: 11 February)

Event Time Altitude Azimuth Distance (km) Brightness Sun altitude
Rises 00:16:19 0° 208° (SSW) 2,440 6.1 -16.2°
Reaches altitude 10° 00:18:29 10° 202° (SSW) 1,570 4.9 -16.6°
Maximum altitude 00:21:53 45° 129° (SE) 620 2.1 -17.3°
Enters shadow 00:22:18 42° 106° (ESE) 646 2.0 -17.4°
